カタログに戻る

STARLINK-5710

運用中通信VLEO
NORAD 55616·PAYLOAD·🇺🇸 United States

打ち上げ Feb 12, 2023 から Cape Canaveral Space Force Station

Loading…

次のパス (今後24時間)

TLE

最新Source: CelesTrak SupGP

元期: Sep 15, 2026, 02:58 UTC

1 55616C 23020AZ  26258.12409722  .00012276  00000+0  44447-3 0  2581
2 55616  43.0024   4.2224 0001401 274.3032  62.2744 15.27585494    15

AllMySatでSTARLINK-5710をリアルタイム追跡

Download on the App Store